Location: Kansas State University
(39.1938°N, 96.5858°W)
Time: 03:14:35
(UTC-05:00)

Daily predictions for brighter satellites

Satellite Brightness Start Highest point End
(mag) Time Altitude Azimuth Time Altitude Azimuth Time Altitude Azimuth
SL-16 R/B 4.1 00:24:36 25° NW 00:24:36 25° NW 00:28:37 10° N
Cosmos 2360 Rocket 4.2 00:43:12 24° N 00:43:12 24° N 00:45:33 10° NNE
Cosmos 2333 Rocket 4.5 01:21:46 19° NNE 01:21:46 19° NNE 01:23:15 10° NNE
ATLAS 3B R/B 3.7 01:56:06 46° NNE 01:56:06 46° NNE 02:01:00 10° NNE
Cosmos 2278 Rocket 4.5 01:49:44 10° NNW 01:51:12 19° NNW 01:51:12 19° NNW
CZ-3A R/B 4.0 02:21:46 56° NNW 02:21:46 56° NNW 02:25:53 10° NE
CZ-4C R/B 4.0 02:33:52 27° NE 02:33:52 27° NE 02:36:30 10° NE
Cosmos 2219 Rocket 4.4 02:47:14 17° NNW 02:47:14 17° NNW 02:49:25 10° N
USA 238 DEB 4.3 02:48:57 53° NNE 02:48:57 53° NNE 02:54:15 10° NNE
USA 238 4.3 02:49:04 53° NNE 02:49:04 53° NNE 02:54:21 10° NNE
SL-16 R/B 4.5 02:52:08 16° E 02:55:00 23° ENE 02:59:39 10° NNE
SL-16 R/B 3.8 03:00:59 30° N 03:00:59 30° N 03:04:03 10° NNE
Resurs 1-4 Rocket 4.4 02:56:01 10° NE 02:58:41 15° E 02:58:41 15° E
Cosmos 2333 Rocket 4.3 03:03:45 18° NNW 03:03:45 18° NNW 03:06:24 10° N
NOSS 3-2 (A) 4.4 03:04:36 44° ENE 03:04:36 44° ENE 03:09:09 10° NE
Cosmos 2237 Rocket 4.3 03:05:11 19° NNW 03:05:11 19° NNW 03:07:49 10° N
NOSS 3-2 (C) 4.0 03:20:58 53° ENE 03:20:58 53° ENE 03:26:09 10° NE
ATLAS 5 CENTAUR R/B 3.8 03:33:28 23° E 03:33:28 23° E 03:36:22 10° ENE
Cosmos 1603 4.5 03:42:35 45° NNW 03:42:35 45° NNW 03:46:50 10° NNE
ATLAS 3B R/B 4.4 03:43:21 21° WNW 03:45:18 23° NW 03:50:55 10° NNE
Cosmos 883 Rocket 4.4 03:54:51 72° ESE 03:55:04 73° E 04:01:11 10° N
Meteor 2-3 Rocket 3.7 03:56:33 10° N 04:02:15 83° NE 04:02:15 83° NE
Okean O Rocket 4.0 03:59:25 10° NE 04:02:28 18° E 04:04:08 15° ESE
CZ-2D R/B 2.3 04:00:01 10° NNE 04:05:15 64° ESE 04:05:16 64° ESE
Cosmos 2315 Rocket 4.2 04:07:44 52° SSE 04:09:08 67° E 04:15:22 10° NNE
Cosmos 724 4.1 04:10:24 84° SSE 04:10:34 85° ESE 04:16:36 10° NNE
Cosmos 1943 3.1 04:11:14 75° NW 04:11:14 75° NW 04:16:40 10° NNE
Spot 4 Rocket 4.5 04:06:14 10° N 04:10:25 53° NNW 04:10:25 53° NNW
IRS-1D 3.5 04:06:09 10° NNE 04:11:09 82° NNE 04:11:09 82° NNE
CZ-4C R/B 3.8 04:19:03 21° NW 04:19:50 22° NW 04:24:28 10° NNE
ADEOS 4.2 04:15:50 10° N 04:20:01 43° NW 04:20:01 43° NW
ARIANE 5 R/B 2.6 04:15:47 10° N 04:20:43 69° NW 04:20:43 69° NW
Cosmos 2369 Rocket 2.0 04:17:33 10° NNW 04:23:07 77° WSW 04:23:07 77° WSW
Cosmos 1455 3.0 04:26:13 51° NE 04:26:13 51° NE 04:29:20 10° NNE
Meteor 2-11 Rocket 4.4 04:25:35 47° S 04:27:25 79° E 04:33:30 10° N
SeaSat 1 3.6 04:23:35 10° SE 04:28:12 43° ENE 04:32:53 10° NNW
USA 234 3.4 04:26:51 10° NE 04:33:19 65° NW 04:35:18 45° W
Cosmos 2242 Rocket 4.0 04:36:48 51° NW 04:36:48 51° NW 04:40:39 10° N
SL-16 R/B 2.5 04:37:13 52° SW 04:38:08 57° WSW 04:44:15 10° NNW
Resurs 1-4 Rocket 2.1 04:34:06 10° N 04:39:18 61° WNW 04:39:46 58° W
Cosmos 1862 Rocket 3.6 04:40:57 65° SSE 04:41:30 77° E 04:45:54 10° N
Cosmos 1943 Rocket 2.4 04:40:19 10° NNW 04:45:59 70° ENE 04:51:36 10° SSE
ADEOS II 4.3 04:49:24 10° NE 04:53:28 22° E 04:57:31 10° SE
ERS-2 4.3 04:51:32 10° NNW 04:52:49 16° NW 04:52:49 16° NW
Cosmos 1408 4.1 04:51:57 10° N 04:55:28 37° E 04:58:59 10° SSE
Cosmos 2263 4.3 04:51:38 10° NNW 04:57:17 56° WSW 05:02:54 10° S
Cosmos 1709 Rocket 4.2 04:53:45 10° NNW 04:59:48 48° W 05:02:00 34° SW
SL-27 R/B 2.6 05:00:36 60° S 05:01:10 76° ESE 05:04:49 10° NNE
PAYLOAD B 4.5 04:56:31 10° NNE 05:02:02 67° ESE 05:06:30 16° S
Centaur D-1A AC-31 3.2 04:58:25 28° SW 05:02:22 37° SSW 05:06:48 10° SE
Cosmos 1825 3.1 04:59:33 10° N 05:03:15 49° E 05:06:55 10° SSE
MOZ.5/SAFIR/RUBIN 5/SL-8 3.7 05:01:50 10° SSE 05:06:28 89° E 05:11:07 10° NNW
Cosmos 1733 Rocket 3.2 05:04:17 10° NNW 05:08:30 48° W 05:09:12 44° WSW
CENTAUR R/B 2.4 05:06:29 32° SW 05:09:34 82° WNW 05:16:26 10° NNE
IRS-1C Rocket 4.0 05:07:33 10° N 05:12:51 78° WNW 05:16:13 23° SSW
ARGOS Delta rocket 3.7 05:09:05 10° N 05:13:24 57° WNW 05:14:57 36° SW
BREEZE-M DEB (TANK) 3.9 05:12:38 12° WNW 05:16:19 86° SSW 05:26:47 10° SE
ATLAS 5 CENTAUR R/B 2.6 05:15:02 30° W 05:16:41 40° NW 05:21:36 10° NNE
Cosmos 1656 Rocket 4.2 05:11:53 10° NNW 05:17:15 58° ENE 05:22:34 10° SE
Cosmos 1862 3.2 05:13:33 10° N 05:17:33 85° E 05:21:31 10° S
UNKNOWN OBJECT B 4.0 05:16:58 10° NNW 05:19:46 24° WNW 05:19:46 24° WNW
PSLV R/B 3.5 05:20:05 34° WNW 05:21:24 65° N 05:24:48 10° E
Cosmos 2074 Rocket 3.9 05:15:55 10° N 05:22:07 74° W 05:28:19 10° S
Cosmos 2327 Rocket 4.4 05:18:13 10° N 05:24:19 73° W 05:30:27 10° S
Cosmos 1869 4.2 05:25:52 28° W 05:26:13 28° WNW 05:29:41 10° NNW
Cosmos 2184 Rocket 4.0 05:19:53 10° NNW 05:26:15 72° W 05:32:32 10° S
CZ-4B R/B 2.7 05:29:37 10° N 05:33:15 62° WNW 05:35:40 20° SSW
Cosmos 1933 3.5 05:31:28 23° SSW 05:33:50 52° W 05:37:52 10° N
Cosmos 1908 Rocket 3.6 05:33:03 10° NNW 05:37:19 53° W 05:41:33 10° S
Okean O Rocket 2.2 05:34:50 10° N 05:38:59 39° WNW 05:41:35 20° SW
Cosmos 2221 Rocket 3.5 05:35:33 11° SSW 05:39:51 70° W 05:44:17 10° N
Cosmos 1610 Rocket 4.5 05:35:39 10° N 05:42:00 76° W 05:48:15 10° S
Okean-O 2.8 05:39:53 10° NNE 05:44:20 74° ESE 05:48:45 10° S
CZ-2D R/B 3.8 05:41:38 10° NNW 05:44:46 16° WNW 05:46:36 14° W
Cosmos 2341 Rocket 4.5 05:39:52 10° N 05:46:08 66° E 05:52:26 10° SSE
Cosmos 407 Rocket 3.6 05:41:37 10° SSW 05:46:48 78° ESE 05:52:05 10° NNE
Cosmos 389 Rocket 4.2 05:51:36 15° W 05:52:11 16° WNW 05:54:25 10° NNW
Atlas Centaur 2 3.5 05:50:12 11° SSW 05:53:30 22° SSE 05:57:38 10° ESE
Cosmos 1703 Rocket 4.0 05:49:52 11° SSW 05:53:55 43° W 05:58:13 10° N
COSMOS 2406 3.7 05:51:05 14° SW 05:55:47 46° WNW 06:01:20 10° N
Cosmos 2285 Rocket 4.2 05:50:45 10° NNW 05:56:58 52° WSW 06:03:06 10° S
USA 129 3.3 06:02:22 11° NW 06:02:22 11° NW 06:02:26 10° NW
Meteor PRIRODA 3.6 05:59:40 10° N 06:03:27 84° WNW 06:07:13 10° SSW
SeaSat 1 3.5 06:01:58 10° SSW 06:05:51 23° WSW 06:09:47 10° NW
Cosmos 2151 Rocket 4.1 06:03:39 10° N 06:08:02 64° E 06:12:23 10° SSE
CZ-4B R/B 4.0 06:05:02 10° N 06:09:40 31° WNW 06:14:17 10° SW
Geosat 4.2 06:08:19 10° NNE 06:13:14 55° WNW 06:18:07 10° SW
COSMOS 2487 2.7 06:10:40 10° SSW 06:14:10 50° WNW 06:17:42 10° N
USA 116 4.4 06:10:15 10° S 06:14:52 59° W 06:20:00 10° NNW
PSLV R/B 4.0 06:10:59 10° N 06:15:08 44° WNW 06:19:18 10° SW
Ariane Rocket 4.1 06:14:43 10° NNE 06:19:38 48° E 06:24:32 10° S
GPS 2-05 Rocket1 4.0 06:16:57 10° SW 06:19:56 30° SSE 06:22:49 10° ESE
NOAA 6 4.3 06:18:31 10° NNE 06:23:42 76° ESE 06:28:51 10° S
Meteor 2-10 Rocket 3.8 06:20:17 10° SSW 06:26:05 77° W 06:31:50 10° N
CZ-3 R/B 4.3 06:25:31 10° W 06:48:14 25° SW 06:56:33 10° S
